OneWeb SL0390

operational
NORAD ID: 50470 Int'l Des: 2021-132 Owner: ONEWEBN Country: UK Constellation: oneweb
LEOCIRCULARPOLARONEWEB_TYPE

About OneWeb SL0390

Description loading...

Live Position

Loading 3D Globe...

Upcoming Passes

Altitude History

Altitude vs Time

uPlot chart will show altitude changes over time

Two-Line Element Set

1 50470U 21132B 25296.35549051 .00000088 00000-0 19476-3 0 9997
2 50470 87.9113 52.9697 0001946 95.3361 264.7993 13.17648083186895
Epoch: Oct 23, 2025 • Age: 17 hours

Current Status

Altitude 1197.5 km
Velocity 7.25 km/s
Sub-Earth Point -5.47°S, 172.23°E
Launch Date Dec 27, 2021
Age 3.8 years
Type internet

Technical Details

Classification Payload
Mass 148.00 kg
Dry Mass 140.00 kg
Total Mass 148.00 kg
Length 1.30 m
Diameter 1.00 m
Span 5.00 m
Shape Trapezoid+2 pan
Manufacturer ONEWUS
Bus Type ARROW
Phase Status In Orbit
Owner/State ONEWEBN/UK

Large Constellations

Loading constellations...